Litchfield, MN

4:31 AM CDT on April 29, 2017 (GMT -0500)
Litchfield Municipal

Weather History for KLJF - September, 2011

Change the Weather History Date:

Thursday, September 29, 2011

  Actual Average Record
Temperature  
Mean Temperature 60 °F -  
Max Temperature 66 °F 67 °F 83 °F (1983)
Min Temperature 53 °F 42 °F 29 °F (1974)
Degree Days  
Heating Degree Days 6    
Growing Degree Days 10 (Base 50)    
Moisture  
Dew Point 44 °F    
Average Humidity 56    
Maximum Humidity 82    
Minimum Humidity 35    
Precipitation  
Precipitation 0.00 in - - ()
Sea Level Pressure  
Sea Level Pressure 29.89 in    
Wind  
Wind Speed 15 mph (NW)    
Max Wind Speed 31 mph    
Max Gust Speed 47 mph    
Visibility 10 miles    
Events Rain    
Averages and records for this station are not official NWS values.
T = Trace of Precipitation, MM = Missing Value Source: NWS Daily Summary

Daily Weather History Graph

Daily Weather History Graph

Search for Another Location

Airport or City:

Trip Planner

Search our weather history database for the weather conditions in past years. The results will help you decide how hot, cold, wet, or windy it might be!

Date:

Astronomy

Sep. 29, 2011 Rise Set
Actual Time 7:13 AM CDT 7:02 PM CDT
Civil Twilight 6:44 AM CDT 7:31 PM CDT
Nautical Twilight 6:09 AM CDT 8:06 PM CDT
Astronomical Twilight 5:35 AM CDT 8:40 PM CDT
Moon 10:10 AM CDT 8:03 PM CDT
Length of Visible Light 12h 47m
Length of Day
11h 49m
Waxing Crescent, 7% of the Moon is Illuminated
Sep 29
Waxing Crescent
Oct 3
First Quarter
Oct 11
Full
Oct 19
Last Quarter
Oct 26
New

Hourly Weather History & Observations

Time (CDT) Temp. Dew Point Humidity Pressure Visibility Wind Dir Wind Speed Gust Speed Precip Events Conditions
12:13 AM 60.8 °F 50.0 °F 68% 29.79 in 10.0 mi West 5.8 mph - N/A   Clear
12:33 AM 64.4 °F 48.2 °F 56% 29.79 in 10.0 mi NW 6.9 mph - N/A   Clear
12:53 AM 64.4 °F 48.2 °F 56% 29.80 in 10.0 mi WNW 9.2 mph - N/A   Clear
1:13 AM 64.4 °F 48.2 °F 56% 29.79 in 10.0 mi NW 6.9 mph - N/A   Clear
1:33 AM 64.4 °F 48.2 °F 56% 29.79 in 10.0 mi NW 8.1 mph - N/A   Clear
1:53 AM 62.6 °F 48.2 °F 59% 29.79 in 10.0 mi NW 8.1 mph - N/A   Clear
2:13 AM 62.6 °F 48.2 °F 59% 29.79 in 10.0 mi West 6.9 mph - N/A   Clear
2:33 AM 62.6 °F 48.2 °F 59% 29.80 in 10.0 mi WNW 11.5 mph - N/A   Clear
2:53 AM 64.4 °F 46.4 °F 52% 29.80 in 10.0 mi WNW 10.4 mph - N/A   Clear
3:13 AM 64.4 °F 46.4 °F 52% 29.79 in 10.0 mi WNW 11.5 mph 18.4 mph N/A   Clear
3:33 AM 62.6 °F 46.4 °F 55% 29.79 in 10.0 mi WNW 12.7 mph 17.3 mph N/A   Clear
3:53 AM 62.6 °F 44.6 °F 52% 29.79 in 10.0 mi WNW 15.0 mph 21.9 mph N/A   Clear
4:13 AM 62.6 °F 46.4 °F 55% 29.78 in 10.0 mi NW 11.5 mph 21.9 mph N/A   Clear
4:33 AM 62.6 °F 46.4 °F 55% 29.81 in 10.0 mi NW 16.1 mph 23.0 mph N/A   Clear
4:53 AM 62.6 °F 46.4 °F 55% 29.82 in 10.0 mi NW 15.0 mph 26.5 mph N/A   Clear
5:13 AM 60.8 °F 46.4 °F 59% 29.83 in 10.0 mi NW 15.0 mph 23.0 mph N/A   Clear
5:33 AM 60.8 °F 46.4 °F 59% 29.84 in 10.0 mi NW 16.1 mph 21.9 mph N/A   Scattered Clouds
5:53 AM 60.8 °F 46.4 °F 59% 29.85 in 10.0 mi WNW 13.8 mph 21.9 mph N/A   Scattered Clouds
6:13 AM 59.0 °F 46.4 °F 63% 29.85 in 10.0 mi WNW 11.5 mph - N/A   Clear
6:33 AM 59.0 °F 46.4 °F 63% 29.86 in 10.0 mi WNW 17.3 mph 25.3 mph N/A   Clear
6:53 AM 57.2 °F 46.4 °F 67% 29.86 in 10.0 mi WNW 15.0 mph 21.9 mph N/A   Clear
7:13 AM 57.2 °F 46.4 °F 67% 29.87 in 10.0 mi WNW 12.7 mph 16.1 mph N/A   Clear
7:33 AM 55.4 °F 46.4 °F 72% 29.87 in 10.0 mi WNW 13.8 mph 19.6 mph N/A   Clear
7:53 AM 55.4 °F 44.6 °F 67% 29.87 in 10.0 mi WNW 16.1 mph 23.0 mph N/A   Clear
8:13 AM 57.2 °F 44.6 °F 63% 29.88 in 10.0 mi WNW 18.4 mph 23.0 mph N/A   Clear
8:33 AM 57.2 °F 44.6 °F 63% 29.88 in 10.0 mi NW 17.3 mph 27.6 mph N/A   Clear
9:13 AM 57.2 °F 42.8 °F 59% 29.89 in 10.0 mi NW 20.7 mph 35.7 mph N/A   Clear
9:33 AM 57.2 °F 42.8 °F 59% 29.89 in 10.0 mi NW 21.9 mph 34.5 mph N/A   Clear
9:53 AM 59.0 °F 42.8 °F 55% 29.88 in 10.0 mi WNW 19.6 mph 32.2 mph N/A   Clear
10:13 AM 60.8 °F 41.0 °F 48% 29.88 in 7.0 mi NW 23.0 mph 40.3 mph N/A   Clear
10:33 AM 60.8 °F 42.8 °F 52% 29.87 in 10.0 mi WNW 24.2 mph 34.5 mph N/A   Clear
10:53 AM 60.8 °F 41.0 °F 48% 29.88 in 10.0 mi NW 27.6 mph 36.8 mph N/A   Clear
11:14 AM 59.0 °F 42.8 °F 55% 29.90 in 10.0 mi NW 25.3 mph 47.2 mph N/A   Mostly Cloudy
11:33 AM 57.2 °F 41.0 °F 55% 29.90 in 10.0 mi NW 31.1 mph 42.6 mph N/A   Overcast
11:53 AM 55.4 °F 44.6 °F 67% 29.92 in 5.0 mi NW 26.5 mph 40.3 mph N/A Rain Rain
12:13 PM 53.6 °F 48.2 °F 82% 29.93 in 10.0 mi NW 25.3 mph 34.5 mph N/A   Overcast
12:33 PM 53.6 °F 48.2 °F 82% 29.94 in 10.0 mi NNW 24.2 mph 36.8 mph N/A   Light Drizzle
12:53 PM 55.4 °F 50.0 °F 82% 29.94 in 10.0 mi NW 20.7 mph 32.2 mph N/A Rain Light Rain
1:14 PM 57.2 °F 48.2 °F 72% 29.95 in 10.0 mi NNW 27.6 mph 36.8 mph N/A   Scattered Clouds
1:33 PM 60.8 °F 48.2 °F 63% 29.95 in 10.0 mi NNW 26.5 mph 38.0 mph N/A   Mostly Cloudy
1:53 PM 60.8 °F 46.4 °F 59% 29.96 in 10.0 mi NNW 26.5 mph 41.4 mph N/A   Mostly Cloudy
2:12 PM 60.8 °F 46.4 °F 59% 29.96 in 10.0 mi NNW 26.5 mph 46.0 mph N/A   Mostly Cloudy
2:33 PM 62.6 °F 44.6 °F 52% 29.97 in 10.0 mi NW 28.8 mph 40.3 mph N/A   Scattered Clouds
2:53 PM 62.6 °F 42.8 °F 48% 29.97 in 10.0 mi NNW 29.9 mph 40.3 mph N/A   Clear
3:13 PM 64.4 °F 39.2 °F 40% 29.97 in 10.0 mi NNW 27.6 mph 38.0 mph N/A   Clear
3:33 PM 64.4 °F 39.2 °F 40% 29.97 in 10.0 mi NNW 29.9 mph 41.4 mph N/A   Clear
3:53 PM 66.2 °F 39.2 °F 37% 29.98 in 10.0 mi NNW 27.6 mph 46.0 mph N/A   Clear
4:14 PM 66.2 °F 37.4 °F 35% 29.99 in 10.0 mi NNW 26.5 mph 38.0 mph N/A   Clear
5:12 PM 64.4 °F 37.4 °F 37% 30.01 in 10.0 mi NNW 24.2 mph 35.7 mph N/A   Clear
5:33 PM 64.4 °F 37.4 °F 37% 30.02 in 10.0 mi NNW 20.7 mph 34.5 mph N/A   Clear
5:53 PM 64.4 °F 37.4 °F 37% 30.03 in 10.0 mi NNW 21.9 mph 29.9 mph N/A   Clear
6:13 PM 64.4 °F 37.4 °F 37% 30.04 in 10.0 mi NW 19.6 mph 31.1 mph N/A   Clear
6:33 PM 62.6 °F 37.4 °F 39% 30.05 in 10.0 mi NNW 20.7 mph 26.5 mph N/A   Clear
6:53 PM 62.6 °F 39.2 °F 42% 30.06 in 10.0 mi NNW 18.4 mph 28.8 mph N/A   Clear
7:13 PM 60.8 °F 39.2 °F 45% 30.07 in 10.0 mi NW 12.7 mph 18.4 mph N/A   Clear
7:33 PM 60.8 °F 41.0 °F 48% 30.08 in 10.0 mi NNW 16.1 mph 21.9 mph N/A   Clear
7:53 PM 60.8 °F 42.8 °F 52% 30.09 in 10.0 mi NW 12.7 mph 24.2 mph N/A   Clear
8:13 PM 60.8 °F 42.8 °F 52% 30.10 in 10.0 mi NW 13.8 mph 24.2 mph N/A   Clear
8:33 PM 59.0 °F 44.6 °F 59% 30.10 in 10.0 mi NNW 16.1 mph 25.3 mph N/A   Clear
8:53 PM 57.2 °F 44.6 °F 63% 30.11 in 10.0 mi NW 15.0 mph 23.0 mph N/A   Clear
9:13 PM 57.2 °F 44.6 °F 63% 30.12 in 10.0 mi NW 12.7 mph 18.4 mph N/A   Clear
9:33 PM 57.2 °F 44.6 °F 63% 30.13 in 10.0 mi NW 15.0 mph 18.4 mph N/A   Clear
9:53 PM 55.4 °F 44.6 °F 67% 30.14 in 10.0 mi NW 12.7 mph 19.6 mph N/A   Clear
10:13 PM 55.4 °F 44.6 °F 67% 30.15 in 10.0 mi NNW 12.7 mph 18.4 mph N/A   Clear
10:33 PM 55.4 °F 44.6 °F 67% 30.15 in 10.0 mi NNW 12.7 mph 21.9 mph N/A   Clear
11:13 PM 53.6 °F 44.6 °F 72% 30.16 in 10.0 mi NW 15.0 mph 19.6 mph N/A   Clear
11:33 PM 53.6 °F 44.6 °F 72% 30.16 in 10.0 mi NW 12.7 mph - N/A   Clear
11:53 PM 53.6 °F 44.6 °F 72% 30.16 in 10.0 mi NW 10.4 mph - N/A   Clear